CW8767 Weather Reports


Display with metric or nautical units.
time (UTC)temp
F
wind
direction
speed
MPH
gust
MPH
rain 1hr
in
rain 24hr
in
rain mn
in
humidity
%
barometer
mb
20260502170205 54 272 0.0 0.0 0.00 0.00 0.00 60 1012.2
20260502164204 54 276 0.0 2.0 0.00 0.00 0.00 59 1012.2
20260502163704 54 277 1.0 6.0 0.00 0.00 0.00 58 1012.2
20260502163205 54 288 0.0 1.0 0.00 0.00 0.00 59 1012.2
20260502162204 54 278 1.0 3.0 0.00 0.00 0.00 60 1012.5
20260502161704 54 276 1.0 6.0 0.00 0.00 0.00 60 1012.5
20260502161204 54 303 1.0 3.0 0.00 0.00 0.00 59 1012.5
20260502160704 54 19 0.0 0.0 0.00 0.00 0.00 60 1012.5
20260502152204 53 47 1.0 3.0 0.00 0.00 0.00 64 1012.5
20260502151704 53 277 1.0 3.0 0.00 0.00 0.00 63 1012.5
20260502151204 53 22 1.0 5.0 0.00 0.00 0.00 64 1012.5
20260502150704 53 244 2.0 7.0 0.00 0.00 0.00 63 1012.5
20260502150205 53 41 1.0 3.0 0.00 0.00 0.00 63 1012.5
20260502130704 52 38 1.0 3.0 0.00 0.00 0.00 70 1011.7
20260502130204 52 272 1.0 3.0 0.00 0.00 0.00 73 1011.7
20260502123704 51 12 2.0 6.0 0.00 0.00 0.00 77 1011.7
20260502123205 51 322 1.0 3.0 0.00 0.00 0.00 77 1011.7
20260502122704 51 359 1.0 5.0 0.00 0.00 0.00 77 1011.3
20260502122204 51 38 0.0 3.0 0.00 0.00 0.00 78 1011.3
20260502121705 51 358 1.0 3.0 0.00 0.00 0.00 79 1011.3
20260502121204 50 290 2.0 5.0 0.00 0.00 0.00 79 1011.3
20260502120705 50 40 1.0 5.0 0.00 0.00 0.00 80 1011.3
20260502120204 50 7 1.0 3.0 0.00 0.00 0.00 82 1011.5
20260502115204 50 9 1.0 3.0 0.00 0.00 0.00 83 1011.5
20260502114204 50 2 0.0 3.0 0.00 0.00 0.00 85 1011.5
20260502113704 50 8 1.0 3.0 0.00 0.00 0.00 86 1011.5
20260502113204 50 350 0.0 3.0 0.00 0.00 0.00 86 1011.5
20260502112704 50 34 0.0 3.0 0.00 0.00 0.00 86 1011.5
20260502111204 50 332 0.0 0.0 0.00 0.00 0.00 87 1011.2
20260502110204 49 332 0.0 0.0 0.00 0.00 0.00 88 1011.2
20260502105204 49 284 0.0 0.0 0.00 0.00 0.00 90 1011.2
20260502104704 49 283 0.0 0.0 0.00 0.00 0.00 90 1011.2
20260502104204 49 283 0.0 0.0 0.00 0.00 0.00 91 1011.2
20260502103704 48 283 0.0 0.0 0.00 0.00 0.00 92 1011.2
20260502103204 48 283 0.0 0.0 0.00 0.00 0.00 93 1011.2
20260502102704 48 283 0.0 0.0 0.00 0.00 0.00 93 1011.1
20260502101704 47 283 0.0 0.0 0.00 0.00 0.00 93 1010.7
20260502101204 47 128 0.0 0.0 0.00 0.00 0.00 94 1010.7
20260502100704 47 129 0.0 0.0 0.00 0.00 0.00 94 1010.7
20260502100204 47 129 0.0 0.0 0.00 0.00 0.00 94 1010.7
20260502090704 48 129 0.0 0.0 0.00 0.00 0.00 93 1010.6
20260502090204 48 129 0.0 0.0 0.00 0.00 0.00 92 1010.5
20260502071204 50 177 0.0 0.0 0.00 0.00 0.00 87 1010.2
20260502070704 50 177 0.0 0.0 0.00 0.00 0.00 87 1010.2
20260502070204 50 177 0.0 0.0 0.00 0.00 0.00 87 1010.2
20260502065704 51 177 0.0 0.0 0.00 0.00 0.00 86 1010.2
20260502065204 51 177 0.0 0.0 0.00 0.00 0.00 86 1010.2
20260502064704 51 177 0.0 0.0 0.00 0.00 0.00 86 1010.2
20260502064204 51 177 0.0 0.0 0.00 0.00 0.00 85 1010.2
20260502063704 51 177 0.0 0.0 0.00 0.00 0.00 85 1010.2
20260502063203 52 177 0.0 0.0 0.00 0.00 0.00 85 1010.2
20260502062703 52 177 0.0 0.0 0.00 0.00 0.00 84 1010.6
20260502061704 52 177 0.0 0.0 0.00 0.00 0.00 84 1010.6
20260502061203 52 177 0.0 0.0 0.00 0.00 0.00 84 1010.6
20260502060703 52 149 0.0 0.0 0.00 0.00 0.00 84 1010.6
20260502060203 52 99 0.0 0.0 0.00 0.00 0.00 84 1010.6
20260502055204 52 99 0.0 0.0 0.00 0.00 0.00 83 1010.6
20260502054704 53 99 0.0 0.0 0.00 0.00 0.00 83 1010.6
20260502054204 53 99 0.0 0.0 0.00 0.00 0.00 83 1010.6
20260502053204 53 153 0.0 0.0 0.00 0.00 0.00 82 1010.6
20260502052704 53 153 0.0 0.0 0.00 0.00 0.00 82 1010.6
20260502052203 53 153 0.0 0.0 0.00 0.00 0.00 81 1010.6
20260502051703 53 153 0.0 0.0 0.00 0.00 0.00 81 1010.6
20260502051204 54 153 0.0 0.0 0.00 0.00 0.00 80 1010.6
20260502050704 54 153 0.0 0.0 0.00 0.00 0.00 80 1010.6
20260502050204 54 153 0.0 0.0 0.00 0.00 0.00 80 1010.6
20260502045204 54 153 0.0 0.0 0.00 0.00 0.00 79 1010.6
20260502044704 54 153 0.0 0.0 0.00 0.00 0.00 79 1010.7
20260502044203 54 153 0.0 0.0 0.00 0.00 0.00 79 1010.7
20260502043704 54 153 0.0 3.0 0.00 0.00 0.00 78 1010.7
20260502043203 54 44 0.0 0.0 0.00 0.00 0.00 78 1010.7
20260502042703 54 44 0.0 0.0 0.00 0.00 0.00 78 1010.7
20260502042204 54 44 0.0 0.0 0.00 0.00 0.00 78 1010.7
20260502041704 55 44 0.0 1.0 0.00 0.00 0.00 77 1010.7
20260502041203 55 243 0.0 0.0 0.00 0.00 0.00 77 1010.7
20260502040704 55 243 0.0 0.0 0.00 0.00 0.00 77 1010.7
20260502040203 55 243 0.0 0.0 0.00 0.00 0.00 76 1010.7
20260502035704 55 243 0.0 0.0 0.00 0.00 0.00 76 1010.7
20260502035203 55 243 0.0 0.0 0.00 0.00 0.00 76 1010.7
20260502034703 55 243 0.0 0.0 0.00 0.00 0.00 76 1010.7
20260502034204 56 243 0.0 0.0 0.00 0.00 0.00 75 1010.0
20260502033704 56 243 0.0 0.0 0.00 0.00 0.00 75 1010.0
20260502032704 56 243 0.0 0.0 0.00 0.00 0.00 75 1010.0
20260502032204 56 242 0.0 0.0 0.00 0.00 0.00 74 1010.0
20260502031704 56 242 0.0 1.0 0.00 0.00 0.00 74 1010.0
20260502030204 56 43 0.0 1.0 0.00 0.00 0.00 73 1010.0
20260502025704 56 300 0.0 0.0 0.00 0.00 0.00 73 1010.0
20260502025203 56 300 0.0 0.0 0.00 0.00 0.00 72 1010.2
20260502024704 57 300 0.0 0.0 0.00 0.00 0.00 72 1010.2
20260502024204 57 300 0.0 2.0 0.00 0.00 0.00 72 1010.2
20260502023203 56 10 0.0 0.0 0.00 0.00 0.00 71 1010.1
20260502022704 56 10 0.0 0.0 0.00 0.00 0.00 71 1010.1
20260502022204 56 10 0.0 0.0 0.00 0.00 0.00 71 1010.1
20260502021703 56 10 0.0 0.0 0.00 0.00 0.00 70 1010.1
20260502021204 56 261 0.0 0.0 0.00 0.00 0.00 69 1010.1
20260502020703 56 261 0.0 0.0 0.00 0.00 0.00 69 1010.1
20260502015704 56 261 0.0 0.0 0.00 0.00 0.00 68 1010.1
20260502015203 55 261 0.0 0.0 0.00 0.00 0.00 68 1009.7
20260502014703 55 261 0.0 0.0 0.00 0.00 0.00 67 1009.7
20260502014204 55 261 0.0 0.0 0.00 0.00 0.00 66 1009.7
20260502013704 56 261 0.0 0.0 0.00 0.00 0.00 66 1009.7
20260502013204 56 261 0.0 0.0 0.00 0.00 0.00 65 1009.7
20260502012704 56 261 0.0 0.0 0.00 0.00 0.00 65 1009.7
20260502012203 56 261 0.0 0.0 0.00 0.00 0.00 64 1009.7
20260502011703 56 261 0.0 0.0 0.00 0.00 0.00 63 1009.7
20260502011204 56 261 0.0 0.0 0.00 0.00 0.00 61 1009.7
20260502010704 57 261 0.0 0.0 0.00 0.00 0.00 60 1009.7
20260502010204 57 261 0.0 0.0 0.00 0.00 0.00 59 1009.7
20260502005704 57 261 0.0 0.0 0.00 0.00 0.00 59 1009.7
20260502005203 58 261 0.0 0.0 0.00 0.00 0.00 58 1008.9
20260502004703 58 261 0.0 0.0 0.00 0.00 0.00 57 1008.9
20260502004204 58 261 0.0 0.0 0.00 0.00 0.00 56 1008.9
20260502003704 59 261 0.0 0.0 0.00 0.00 0.00 55 1008.9
20260502003204 59 261 0.0 0.0 0.00 0.00 0.00 55 1008.9
20260502002704 59 261 0.0 0.0 0.00 0.00 0.00 54 1008.9
20260502001704 60 261 0.0 0.0 0.00 0.00 0.00 53 1008.9
20260502001205 60 261 0.0 0.0 0.00 0.00 0.00 53 1008.9
20260502000205 61 261 0.0 0.0 0.00 0.00 0.00 52 1008.9
20260501235705 61 270 0.0 0.0 0.00 0.00 0.00 54 1008.9
20260501235205 62 279 0.0 0.0 0.00 0.00 0.00 53 1008.9
20260501234705 62 279 0.0 0.0 0.00 0.00 0.00 52 1008.9
20260501234205 62 279 0.0 0.0 0.00 0.00 0.00 52 1008.9
20260501233705 62 279 0.0 0.0 0.00 0.00 0.00 51 1008.9
20260501233205 63 276 0.0 1.0 0.00 0.00 0.00 50 1008.9
20260501232705 63 117 0.0 0.0 0.00 0.00 0.00 50 1008.9
20260501232204 63 117 0.0 0.0 0.00 0.00 0.00 50 1008.9
20260501231705 63 121 0.0 0.0 0.00 0.00 0.00 49 1008.9
20260501230704 64 131 0.0 0.0 0.00 0.00 0.00 47 1009.0
20260501230205 64 134 0.0 1.0 0.00 0.00 0.00 46 1009.0
20260501225705 64 80 0.0 6.0 0.00 0.00 0.00 46 1009.0
20260501225204 64 181 0.0 0.0 0.00 0.00 0.00 46 1009.0
20260501224205 64 97 0.0 0.0 0.00 0.00 0.00 45 1009.1
20260501223204 64 327 0.0 0.0 0.00 0.00 0.00 46 1009.1
20260501222204 65 302 1.0 3.0 0.00 0.00 0.00 46 1009.1
20260501220705 65 355 0.0 1.0 0.00 0.00 0.00 45 1009.2
20260501220204 65 53 0.0 0.0 0.00 0.00 0.00 46 1009.3
20260501215704 65 355 0.0 1.0 0.00 0.00 0.00 45 1009.3
20260501214705 65 64 0.0 3.0 0.00 0.00 0.00 45 1009.3
20260501214205 65 5 0.0 2.0 0.00 0.00 0.00 45 1009.3
20260501213705 65 103 0.0 1.0 0.00 0.00 0.00 45 1009.3
20260501212704 65 198 0.0 2.0 0.00 0.00 0.00 44 1009.3
20260501212205 65 152 0.0 1.0 0.00 0.00 0.00 43 1009.3
20260501211204 65 244 0.0 0.0 0.00 0.00 0.00 46 1009.4
20260501210704 65 65 1.0 3.0 0.00 0.00 0.00 44 1009.3
20260501210205 65 254 0.0 5.0 0.00 0.00 0.00 45 1009.8
20260501205705 65 66 0.0 1.0 0.00 0.00 0.00 44 1009.8
20260501205205 65 284 0.0 1.0 0.00 0.00 0.00 44 1009.8
20260501204705 65 84 0.0 5.0 0.00 0.00 0.00 43 1009.8
20260501204204 65 55 0.0 3.0 0.00 0.00 0.00 44 1009.8
20260501203205 65 234 1.0 3.0 0.00 0.00 0.00 42 1009.8
20260501202205 65 91 0.0 3.0 0.00 0.00 0.00 43 1009.8
20260501201705 65 127 1.0 5.0 0.00 0.00 0.00 44 1010.5
20260501201205 65 87 0.0 2.0 0.00 0.00 0.00 48 1010.5
20260501200705 65 203 1.0 5.0 0.00 0.00 0.00 46 1010.5
20260501200204 65 105 1.0 3.0 0.00 0.00 0.00 44 1010.5
20260501195704 65 293 0.0 1.0 0.00 0.00 0.00 45 1010.5
20260501195205 65 116 0.0 5.0 0.00 0.00 0.00 45 1010.5
20260501194704 65 25 0.0 3.0 0.00 0.00 0.00 46 1010.5
20260501194205 65 106 1.0 3.0 0.00 0.00 0.00 42 1010.5
20260501193704 65 101 0.0 3.0 0.00 0.00 0.00 44 1010.5
20260501193204 65 105 2.0 6.0 0.00 0.00 0.00 43 1010.5
20260501192705 65 146 1.0 3.0 0.00 0.00 0.00 43 1012.0
20260501192204 65 70 0.0 5.0 0.00 0.00 0.00 44 1012.0
20260501191704 65 154 1.0 6.0 0.00 0.00 0.00 43 1012.0
20260501190704 64 314 1.0 2.0 0.00 0.00 0.00 45 1012.0
20260501190205 64 122 1.0 3.0 0.00 0.00 0.00 45 1012.0
20260501185705 64 91 0.0 3.0 0.00 0.00 0.00 45 1012.0
20260501185205 64 278 1.0 3.0 0.00 0.00 0.00 48 1012.0
20260501184705 64 62 0.0 3.0 0.00 0.00 0.00 45 1012.0
20260501184205 64 104 0.0 1.0 0.00 0.00 0.00 49 1012.0
20260501183705 64 230 0.0 3.0 0.00 0.00 0.00 47 1012.0
20260501182704 64 56 0.0 1.0 0.00 0.00 0.00 48 1012.0
20260501182204 64 98 0.0 2.0 0.00 0.00 0.00 48 1012.0
20260501181704 64 248 1.0 3.0 0.00 0.00 0.00 46 1012.0
20260501181204 65 42 1.0 3.0 0.00 0.00 0.00 46 1012.0
20260501180205 65 92 1.0 3.0 0.00 0.00 0.00 48 1012.0
20260501175705 64 226 0.0 3.0 0.00 0.00 0.00 47 1013.2
20260501174705 65 237 0.0 0.0 0.00 0.00 0.00 46 1013.2
20260501174204 65 220 0.0 1.0 0.00 0.00 0.00 45 1013.2
20260501173705 64 71 0.0 3.0 0.00 0.00 0.00 45 1013.2
20260501173205 64 107 0.0 2.0 0.00 0.00 0.00 49 1013.2
20260501172704 64 87 0.0 3.0 0.00 0.00 0.00 48 1013.2
20260501172205 63 19 0.0 3.0 0.00 0.00 0.00 48 1013.2